• In Hungary
  • List of Countries
  • For 7 days
  • Water Temperature
  • Satellite Maps
  • Weather Map
  • News
  • Weather Widgets
  • user-avatar
    Login

    Hourly Weather Bukowiec

    Today, 23 September, Sunday

    Time Temperature Precipitation Wind Pressure Humidity
    00:00 +11°C° 0 mm 3 mps 733 mmHg 66%
    01:00 +12°C° 0 mm 3 mps 733 mmHg 65%
    02:00 +11°C° 0.1 mm 3 mps 733 mmHg 68%
    03:00 +11°C° 0.1 mm 3 mps 733 mmHg 71%
    04:00 +11°C° 0.1 mm 3 mps 732 mmHg 74%
    05:00 +11°C° 0 mm 3 mps 732 mmHg 72%
    06:00 +11°C° 0 mm 3 mps 732 mmHg 71%
    07:00 +11°C° 0 mm 3 mps 732 mmHg 70%
    08:00 +13°C° 0 mm 4 mps 732 mmHg 63%
    09:00 +14°C° 0 mm 4 mps 732 mmHg 56%
    10:00 +16°C° 0 mm 5 mps 732 mmHg 49%
    11:00 +15°C° 0 mm 5 mps 732 mmHg 52%
    12:00 +15°C° 0 mm 5 mps 731 mmHg 56%
    13:00 +14°C° 0 mm 5 mps 731 mmHg 59%
    14:00 +14°C° 0.2 mm 4 mps 730 mmHg 65%
    15:00 +13°C° 0.2 mm 4 mps 729 mmHg 70%
    16:00 +13°C° 0.2 mm 4 mps 728 mmHg 76%
    17:00 +13°C° 0 mm 4 mps 727 mmHg 77%
    18:00 +13°C° 0 mm 4 mps 726 mmHg 77%
    19:00 +13°C° 0 mm 5 mps 725 mmHg 78%
    20:00 +14°C° 0.2 mm 6 mps 724 mmHg 77%
    21:00 +14°C° 0.2 mm 7 mps 723 mmHg 75%
    22:00 +15°C° 0.2 mm 8 mps 722 mmHg 74%
    23:00 +15°C° 2.1 mm 7 mps 722 mmHg 79%

    Tomorrow, 24 September, Monday

    Time Temperature Precipitation Wind Pressure Humidity
    00:00 +15°C° 2.1 mm 7 mps 722 mmHg 84%
    01:00 +15°C° 2.1 mm 7 mps 722 mmHg 89%
    02:00 +12°C° 2.2 mm 7 mps 723 mmHg 88%
    03:00 +10°C° 2.2 mm 8 mps 724 mmHg 87%
    04:00 +8°C° 2.2 mm 9 mps 726 mmHg 87%
    05:00 +7°C° 0.3 mm 8 mps 727 mmHg 86%
    06:00 +8°C° 0.3 mm 7 mps 728 mmHg 86%
    07:00 +7°C° 0.3 mm 6 mps 729 mmHg 85%
    08:00 +8°C° 0.2 mm 7 mps 730 mmHg 82%
    09:00 +8°C° 0.2 mm 7 mps 731 mmHg 79%
    10:00 +7°C° 0.2 mm 8 mps 732 mmHg 76%
    11:00 +9°C° 0.2 mm 8 mps 733 mmHg 71%
    12:00 +9°C° 0.2 mm 8 mps 734 mmHg 67%
    13:00 +10°C° 0.2 mm 8 mps 734 mmHg 63%
    14:00 +9°C° 0.2 mm 8 mps 734 mmHg 63%
    15:00 +9°C° 0.2 mm 8 mps 735 mmHg 63%
    16:00 +9°C° 0.2 mm 7 mps 735 mmHg 63%
    17:00 +8°C° 0.1 mm 7 mps 735 mmHg 65%
    18:00 +7°C° 0.1 mm 6 mps 735 mmHg 67%
    19:00 +6°C° 0.1 mm 5 mps 736 mmHg 70%
    20:00 +5°C° 0 mm 5 mps 736 mmHg 69%
    21:00 +5°C° 0 mm 5 mps 737 mmHg 69%
    22:00 +5°C° 0 mm 5 mps 737 mmHg 69%
    23:00 +5°C° 0 mm 5 mps 738 mmHg 71%

    Day after tomorrow, 25 September, Tuesday

    Time Temperature Precipitation Wind Pressure Humidity
    00:00 +5°C° 0 mm 4 mps 738 mmHg 74%
    01:00 +5°C° 0 mm 4 mps 738 mmHg 77%
    02:00 +4°C° 0.3 mm 4 mps 739 mmHg 79%
    03:00 +4°C° 0.3 mm 4 mps 739 mmHg 81%
    04:00 +4°C° 0.3 mm 3 mps 740 mmHg 83%
    05:00 +4°C° 0.1 mm 3 mps 740 mmHg 83%
    06:00 +4°C° 0.1 mm 3 mps 741 mmHg 83%
    07:00 +4°C° 0.1 mm 3 mps 741 mmHg 83%
    08:00 +5°C° 0.1 mm 4 mps 742 mmHg 79%
    09:00 +6°C° 0.1 mm 4 mps 742 mmHg 75%
    10:00 +7°C° 0.1 mm 4 mps 743 mmHg 71%
    11:00 +8°C° 0.2 mm 4 mps 743 mmHg 67%
    12:00 +8°C° 0.2 mm 4 mps 743 mmHg 64%
    13:00 +10°C° 0.2 mm 4 mps 743 mmHg 61%
    14:00 +10°C° 0.2 mm 4 mps 743 mmHg 61%
    15:00 +10°C° 0.2 mm 4 mps 743 mmHg 60%
    16:00 +10°C° 0.2 mm 4 mps 743 mmHg 60%
    17:00 +9°C° 0 mm 3 mps 743 mmHg 64%
    18:00 +7°C° 0 mm 2 mps 744 mmHg 69%
    19:00 +6°C° 0 mm 2 mps 744 mmHg 73%
    20:00 +6°C° 0 mm 1 mps 744 mmHg 74%
    21:00 +6°C° 0 mm 1 mps 745 mmHg 75%
    22:00 +5°C° 0 mm 1 mps 745 mmHg 77%
    23:00 +5°C° 0 mm 1 mps 745 mmHg 78%

    26 September, Wednesday

    Time Temperature Precipitation Wind Pressure Humidity
    00:00 +5°C° 0 mm 1 mps 746 mmHg 79%
    01:00 +4°C° 0 mm 1 mps 746 mmHg 80%
    02:00 +4°C° 0 mm 1 mps 745 mmHg 81%
    03:00 +4°C° 0 mm 1 mps 745 mmHg 81%
    04:00 +4°C° 0 mm 1 mps 745 mmHg 82%
    05:00 +4°C° 0 mm 1 mps 745 mmHg 79%
    06:00 +5°C° 0 mm 1 mps 745 mmHg 76%
    07:00 +6°C° 0 mm 1 mps 746 mmHg 73%
    08:00 +7°C° 0 mm 2 mps 745 mmHg 64%
    09:00 +9°C° 0 mm 2 mps 745 mmHg 54%
    10:00 +12°C° 0 mm 2 mps 745 mmHg 45%
    11:00 +12°C° 0 mm 3 mps 745 mmHg 43%
    12:00 +13°C° 0 mm 3 mps 744 mmHg 41%
    13:00 +14°C° 0 mm 3 mps 744 mmHg 39%
    14:00 +13°C° 0 mm 3 mps 743 mmHg 43%
    15:00 +13°C° 0 mm 3 mps 743 mmHg 47%
    16:00 +13°C° 0 mm 3 mps 742 mmHg 50%
    17:00 +11°C° 0 mm 3 mps 742 mmHg 55%
    18:00 +10°C° 0 mm 3 mps 742 mmHg 60%
    19:00 +8°C° 0 mm 3 mps 742 mmHg 65%
    20:00 +8°C° 0 mm 3 mps 742 mmHg 63%
    21:00 +9°C° 0 mm 3 mps 741 mmHg 60%
    22:00 +9°C° 0 mm 3 mps 741 mmHg 58%
    23:00 +9°C° 0 mm 3 mps 741 mmHg 57%

    27 September, Thursday

    Time Temperature Precipitation Wind Pressure Humidity
    00:00 +9°C° 0 mm 3 mps 741 mmHg 56%
    01:00 +9°C° 0 mm 3 mps 740 mmHg 55%
    02:00 +8°C° 0 mm 3 mps 740 mmHg 56%
    03:00 +8°C° 0 mm 3 mps 740 mmHg 57%
    04:00 +7°C° 0 mm 3 mps 739 mmHg 58%
    05:00 +8°C° 0 mm 3 mps 739 mmHg 57%
    06:00 +9°C° 0 mm 3 mps 739 mmHg 56%
    07:00 +9°C° 0 mm 3 mps 739 mmHg 55%
    08:00 +11°C° 0 mm 3 mps 739 mmHg 51%
    09:00 +14°C° 0 mm 4 mps 739 mmHg 47%
    10:00 +17°C° 0 mm 4 mps 739 mmHg 43%
    11:00 +18°C° 0 mm 4 mps 739 mmHg 41%
    12:00 +19°C° 0 mm 4 mps 739 mmHg 40%
    13:00 +20°C° 0 mm 4 mps 738 mmHg 39%
    14:00 +20°C° 0 mm 3 mps 738 mmHg 43%
    15:00 +20°C° 0 mm 3 mps 738 mmHg 47%
    16:00 +19°C° 0 mm 3 mps 738 mmHg 50%
    17:00 +17°C° 0 mm 2 mps 738 mmHg 55%
    18:00 +16°C° 0 mm 2 mps 738 mmHg 59%
    19:00 +14°C° 0 mm 2 mps 738 mmHg 64%
    20:00 +13°C° 0 mm 2 mps 738 mmHg 64%
    21:00 +13°C° 0 mm 2 mps 738 mmHg 65%
    22:00 +12°C° 0 mm 2 mps 738 mmHg 65%
    23:00 +12°C° 0 mm 2 mps 737 mmHg 66%

    28 September, Friday

    Time Temperature Precipitation Wind Pressure Humidity
    00:00 +12°C° 0 mm 2 mps 737 mmHg 67%
    01:00 +12°C° 0 mm 2 mps 737 mmHg 67%
    02:00 +10°C° 0 mm 2 mps 736 mmHg 68%
    03:00 +10°C° 0 mm 2 mps 736 mmHg 69%
    04:00 +10°C° 0 mm 2 mps 736 mmHg 70%
    05:00 +12°C° 0 mm 2 mps 736 mmHg 69%
    06:00 +12°C° 0 mm 2 mps 736 mmHg 68%
    07:00 +13°C° 0 mm 2 mps 736 mmHg 67%
    08:00 +15°C° 0 mm 2 mps 736 mmHg 60%
    09:00 +17°C° 0 mm 2 mps 736 mmHg 54%
    10:00 +20°C° 0 mm 2 mps 736 mmHg 48%
    11:00 +21°C° 0 mm 2 mps 736 mmHg 46%
    12:00 +21°C° 0 mm 2 mps 736 mmHg 45%
    13:00 +23°C° 0 mm 2 mps 735 mmHg 44%
    14:00 +23°C° 0 mm 2 mps 735 mmHg 46%
    15:00 +21°C° 0 mm 2 mps 735 mmHg 49%
    16:00 +22°C° 0 mm 1 mps 734 mmHg 52%
    17:00 +20°C° 0 mm 1 mps 734 mmHg 59%
    18:00 +18°C° 0 mm 1 mps 734 mmHg 65%
    19:00 +14°C° 0 mm 0 mps 734 mmHg 72%
    20:00 +13°C° 0 mm 0 mps 735 mmHg 75%
    21:00 +14°C° 0 mm 1 mps 735 mmHg 78%
    22:00 +13°C° 0 mm 1 mps 735 mmHg 81%
    23:00 +13°C° 0 mm 1 mps 734 mmHg 83%
    Show more